Year,Month,Day,Hour,Minute,Value (Times are PST for temperature in C)
2015,04,08,00,00,8.80
2015,04,08,00,01,8.80
2015,04,08,00,02,8.80
2015,04,08,00,03,8.80
2015,04,08,00,04,8.80
2015,04,08,00,05,8.80
2015,04,08,00,06,8.80
2015,04,08,00,07,8.80
2015,04,08,00,08,8.80
2015,04,08,00,09,8.80
2015,04,08,00,10,8.80
2015,04,08,00,11,8.80
2015,04,08,00,12,8.80
2015,04,08,00,13,8.80
2015,04,08,00,14,8.80
2015,04,08,00,15,8.80
2015,04,08,00,16,8.80
2015,04,08,00,17,8.70
2015,04,08,00,18,8.70
2015,04,08,00,19,8.70
2015,04,08,00,20,8.60
2015,04,08,00,21,8.60
2015,04,08,00,22,8.60
2015,04,08,00,23,8.60
2015,04,08,00,24,8.60
2015,04,08,00,25,8.60
2015,04,08,00,26,8.60
2015,04,08,00,27,8.60
2015,04,08,00,28,8.60
2015,04,08,00,29,8.70
2015,04,08,00,30,8.70
2015,04,08,00,31,8.70
2015,04,08,00,32,8.70
2015,04,08,00,33,8.60
2015,04,08,00,34,8.60
2015,04,08,00,35,8.60
2015,04,08,00,36,8.50
2015,04,08,00,37,8.50
2015,04,08,00,38,8.40
2015,04,08,00,39,8.40
2015,04,08,00,40,8.40
2015,04,08,00,41,8.40
2015,04,08,00,42,8.40
2015,04,08,00,43,8.40
2015,04,08,00,44,8.40
2015,04,08,00,45,8.30
2015,04,08,00,46,8.30
2015,04,08,00,47,8.30
2015,04,08,00,48,8.30
2015,04,08,00,49,8.30
2015,04,08,00,50,8.30
2015,04,08,00,51,8.30
2015,04,08,00,52,8.30
2015,04,08,00,53,8.30
2015,04,08,00,54,8.20
2015,04,08,00,55,8.20
2015,04,08,00,56,8.10
2015,04,08,00,57,8.10
2015,04,08,00,58,8.10
2015,04,08,00,59,8.10
2015,04,08,01,00,8.10
2015,04,08,01,01,8.10
2015,04,08,01,02,8.10
2015,04,08,01,03,8.00
2015,04,08,01,04,8.00
2015,04,08,01,05,8.00
2015,04,08,01,06,8.00
2015,04,08,01,07,8.00
2015,04,08,01,08,7.90
2015,04,08,01,09,7.90
2015,04,08,01,10,7.90
2015,04,08,01,11,7.90
2015,04,08,01,12,7.90
2015,04,08,01,13,7.90
2015,04,08,01,14,7.90
2015,04,08,01,15,7.80
2015,04,08,01,16,7.80
2015,04,08,01,17,7.80
2015,04,08,01,18,7.70
2015,04,08,01,19,7.70
2015,04,08,01,20,7.70
2015,04,08,01,21,7.70
2015,04,08,01,22,7.70
2015,04,08,01,23,7.70
2015,04,08,01,24,7.70
2015,04,08,01,25,7.70
2015,04,08,01,26,7.70
2015,04,08,01,27,7.70
2015,04,08,01,28,7.70
2015,04,08,01,29,7.70
2015,04,08,01,30,7.60
2015,04,08,01,31,7.60
2015,04,08,01,32,7.50
2015,04,08,01,33,7.50
2015,04,08,01,34,7.40
2015,04,08,01,35,7.40
2015,04,08,01,36,7.40
2015,04,08,01,37,7.40
2015,04,08,01,38,7.40
2015,04,08,01,39,7.40
2015,04,08,01,40,7.40
2015,04,08,01,41,7.30
2015,04,08,01,42,7.30
2015,04,08,01,43,7.30
2015,04,08,01,44,7.30
2015,04,08,01,45,7.20
2015,04,08,01,46,7.20
2015,04,08,01,47,7.20
2015,04,08,01,48,7.20
2015,04,08,01,49,7.10
2015,04,08,01,50,7.10
2015,04,08,01,51,7.10
2015,04,08,01,52,7.00
2015,04,08,01,53,7.00
2015,04,08,01,54,7.00
2015,04,08,01,55,7.00
2015,04,08,01,56,7.00
2015,04,08,01,57,7.10
2015,04,08,01,58,7.00
2015,04,08,01,59,7.00
2015,04,08,02,00,7.00
2015,04,08,02,01,7.10
2015,04,08,02,02,7.10
2015,04,08,02,03,7.10
2015,04,08,02,04,7.10
2015,04,08,02,05,7.10
2015,04,08,02,06,7.10
2015,04,08,02,07,7.10
2015,04,08,02,08,7.00
2015,04,08,02,09,7.00
2015,04,08,02,10,7.00
2015,04,08,02,11,6.90
2015,04,08,02,12,7.00
2015,04,08,02,13,6.90
2015,04,08,02,14,6.90
2015,04,08,02,15,6.90
2015,04,08,02,16,6.90
2015,04,08,02,17,6.90
2015,04,08,02,18,6.80
2015,04,08,02,19,6.80
2015,04,08,02,20,6.80
2015,04,08,02,21,6.80
2015,04,08,02,22,6.80
2015,04,08,02,23,6.80
2015,04,08,02,24,6.80
2015,04,08,02,25,6.70
2015,04,08,02,26,6.70
2015,04,08,02,27,6.70
2015,04,08,02,28,6.70
2015,04,08,02,29,6.70
2015,04,08,02,30,6.70
2015,04,08,02,31,6.60
2015,04,08,02,32,6.60
2015,04,08,02,33,6.60
2015,04,08,02,34,6.60
2015,04,08,02,35,6.60
2015,04,08,02,36,6.60
2015,04,08,02,37,6.60
2015,04,08,02,38,6.50
2015,04,08,02,39,6.50
2015,04,08,02,40,6.50
2015,04,08,02,41,6.50
2015,04,08,02,42,6.40
2015,04,08,02,43,6.40
2015,04,08,02,44,6.40
2015,04,08,02,45,6.40
2015,04,08,02,46,6.40
2015,04,08,02,47,6.40
2015,04,08,02,48,6.40
2015,04,08,02,49,6.40
2015,04,08,02,50,6.40
2015,04,08,02,51,6.40
2015,04,08,02,52,6.40
2015,04,08,02,53,6.40
2015,04,08,02,54,6.50
2015,04,08,02,55,6.50
2015,04,08,02,56,6.50
2015,04,08,02,57,6.40
2015,04,08,02,58,6.40
2015,04,08,02,59,6.40
2015,04,08,03,00,6.40
2015,04,08,03,01,6.40
2015,04,08,03,02,6.30
2015,04,08,03,03,6.30
2015,04,08,03,04,6.20
2015,04,08,03,05,6.20
2015,04,08,03,06,6.10
2015,04,08,03,07,6.10
2015,04,08,03,08,6.00
2015,04,08,03,09,5.90
2015,04,08,03,10,5.90
2015,04,08,03,11,5.80
2015,04,08,03,12,5.80
2015,04,08,03,13,5.70
2015,04,08,03,14,5.70
2015,04,08,03,15,5.60
2015,04,08,03,16,5.50
2015,04,08,03,17,5.50
2015,04,08,03,18,5.40
2015,04,08,03,19,5.30
2015,04,08,03,20,5.30
2015,04,08,03,21,5.20
2015,04,08,03,22,5.20
2015,04,08,03,23,5.10
2015,04,08,03,24,5.10
2015,04,08,03,25,5.10
2015,04,08,03,26,5.00
2015,04,08,03,27,5.00
2015,04,08,03,28,4.90
2015,04,08,03,29,4.90
2015,04,08,03,30,4.90
2015,04,08,03,31,4.90
2015,04,08,03,32,4.80
2015,04,08,03,33,4.80
2015,04,08,03,34,4.70
2015,04,08,03,35,4.70
2015,04,08,03,36,4.60
2015,04,08,03,37,4.50
2015,04,08,03,38,4.50
2015,04,08,03,39,4.40
2015,04,08,03,40,4.40
2015,04,08,03,41,4.50
2015,04,08,03,42,4.50
2015,04,08,03,43,4.50
2015,04,08,03,44,4.50
2015,04,08,03,45,4.60
2015,04,08,03,46,4.60
2015,04,08,03,47,4.70
2015,04,08,03,48,4.70
2015,04,08,03,49,4.80
2015,04,08,03,50,4.80
2015,04,08,03,51,4.80
2015,04,08,03,52,4.80
2015,04,08,03,53,4.80
2015,04,08,03,54,4.80
2015,04,08,03,55,4.90
2015,04,08,03,56,4.90
2015,04,08,03,57,4.90
2015,04,08,03,58,4.90
2015,04,08,03,59,4.90
2015,04,08,04,00,4.90
2015,04,08,04,01,4.90
2015,04,08,04,02,4.90
2015,04,08,04,03,4.90
2015,04,08,04,04,4.90
2015,04,08,04,05,4.90
2015,04,08,04,06,4.90
2015,04,08,04,07,4.90
2015,04,08,04,08,5.00
2015,04,08,04,09,5.00
2015,04,08,04,10,5.00
2015,04,08,04,11,5.00
2015,04,08,04,12,5.00
2015,04,08,04,13,5.00
2015,04,08,04,14,5.00
2015,04,08,04,15,5.00
2015,04,08,04,16,5.00
2015,04,08,04,17,5.00
2015,04,08,04,18,4.90
2015,04,08,04,19,4.90
2015,04,08,04,20,4.80
2015,04,08,04,21,4.80
2015,04,08,04,22,4.80
2015,04,08,04,23,4.70
2015,04,08,04,24,4.70
2015,04,08,04,25,4.70
2015,04,08,04,26,4.70
2015,04,08,04,27,4.70
2015,04,08,04,28,4.70
2015,04,08,04,29,4.70
2015,04,08,04,30,4.80
2015,04,08,04,31,4.80
2015,04,08,04,32,4.70
2015,04,08,04,33,4.70
2015,04,08,04,34,4.60
2015,04,08,04,35,4.60
2015,04,08,04,36,4.60
2015,04,08,04,37,4.60
2015,04,08,04,38,4.70
2015,04,08,04,39,4.70
2015,04,08,04,40,4.70
2015,04,08,04,41,4.70
2015,04,08,04,42,4.70
2015,04,08,04,43,4.80
2015,04,08,04,44,4.80
2015,04,08,04,45,4.80
2015,04,08,04,46,4.80
2015,04,08,04,47,4.90
2015,04,08,04,48,4.90
2015,04,08,04,49,5.00
2015,04,08,04,50,5.00
2015,04,08,04,51,5.10
2015,04,08,04,52,5.10
2015,04,08,04,53,5.20
2015,04,08,04,54,5.30
2015,04,08,04,55,5.30
2015,04,08,04,56,5.30
2015,04,08,04,57,5.40
2015,04,08,04,58,5.40
2015,04,08,04,59,5.40
2015,04,08,05,00,5.50
2015,04,08,05,01,5.50
2015,04,08,05,02,5.50
2015,04,08,05,03,5.50
2015,04,08,05,04,5.50
2015,04,08,05,05,5.50
2015,04,08,05,06,5.40
2015,04,08,05,07,5.40
2015,04,08,05,08,5.40
2015,04,08,05,09,5.40
2015,04,08,05,10,5.30
2015,04,08,05,11,5.30
2015,04,08,05,12,5.20
2015,04,08,05,13,5.20
2015,04,08,05,14,5.20
2015,04,08,05,15,5.20
2015,04,08,05,16,5.20
2015,04,08,05,17,5.20
2015,04,08,05,18,5.10
2015,04,08,05,19,5.10
2015,04,08,05,20,5.10
2015,04,08,05,21,5.10
2015,04,08,05,22,5.00
2015,04,08,05,23,5.00
2015,04,08,05,24,4.90
2015,04,08,05,25,4.90
2015,04,08,05,26,4.80
2015,04,08,05,27,4.80
2015,04,08,05,28,4.80
2015,04,08,05,29,4.80
2015,04,08,05,30,4.80
2015,04,08,05,31,4.70
2015,04,08,05,32,4.70
2015,04,08,05,33,4.70
2015,04,08,05,34,4.70
2015,04,08,05,35,4.70
2015,04,08,05,36,4.70
2015,04,08,05,37,4.70
2015,04,08,05,38,4.60
2015,04,08,05,39,4.60
2015,04,08,05,40,4.60
2015,04,08,05,41,4.60
2015,04,08,05,42,4.60
2015,04,08,05,43,4.60
2015,04,08,05,44,4.60
2015,04,08,05,45,4.60
2015,04,08,05,46,4.50
2015,04,08,05,47,4.50
2015,04,08,05,48,4.50
2015,04,08,05,49,4.40
2015,04,08,05,50,4.40
2015,04,08,05,51,4.40
2015,04,08,05,52,4.40
2015,04,08,05,53,4.40
2015,04,08,05,54,4.40
2015,04,08,05,55,4.30
2015,04,08,05,56,4.30
2015,04,08,05,57,4.30
2015,04,08,05,58,4.30
2015,04,08,05,59,4.30
2015,04,08,06,00,4.30
2015,04,08,06,01,4.30
2015,04,08,06,02,4.30
2015,04,08,06,03,4.30
2015,04,08,06,04,4.30
2015,04,08,06,05,4.30
2015,04,08,06,06,4.30
2015,04,08,06,07,4.30
2015,04,08,06,08,4.30
2015,04,08,06,09,4.30
2015,04,08,06,10,4.30
2015,04,08,06,11,4.40
2015,04,08,06,12,4.40
2015,04,08,06,13,4.40
2015,04,08,06,14,4.40
2015,04,08,06,15,4.40
2015,04,08,06,16,4.40
2015,04,08,06,17,4.40
2015,04,08,06,18,4.40
2015,04,08,06,19,4.40
2015,04,08,06,20,4.30
2015,04,08,06,21,4.30
2015,04,08,06,22,4.30
2015,04,08,06,23,4.30
2015,04,08,06,24,4.20
2015,04,08,06,25,4.20
2015,04,08,06,26,4.20
2015,04,08,06,27,4.10
2015,04,08,06,28,4.10
2015,04,08,06,29,4.10
2015,04,08,06,30,4.10
2015,04,08,06,31,4.10
2015,04,08,06,32,4.10
2015,04,08,06,33,4.10
2015,04,08,06,34,4.00
2015,04,08,06,35,4.00
2015,04,08,06,36,4.00
2015,04,08,06,37,4.00
2015,04,08,06,38,3.90
2015,04,08,06,39,3.90
2015,04,08,06,40,3.90
2015,04,08,06,41,3.90
2015,04,08,06,42,3.90
2015,04,08,06,43,3.80
2015,04,08,06,44,3.80
2015,04,08,06,45,3.80
2015,04,08,06,46,3.80
2015,04,08,06,47,3.80
2015,04,08,06,48,3.80
2015,04,08,06,49,3.80
2015,04,08,06,50,3.80
2015,04,08,06,51,3.80
2015,04,08,06,52,3.70
2015,04,08,06,53,3.70
2015,04,08,06,54,3.60
2015,04,08,06,55,3.50
2015,04,08,06,56,3.50
2015,04,08,06,57,3.40
2015,04,08,06,58,3.40
2015,04,08,06,59,3.40
2015,04,08,07,00,3.30
2015,04,08,07,01,3.30
2015,04,08,07,02,3.30
2015,04,08,07,03,3.30
2015,04,08,07,04,3.30
2015,04,08,07,05,3.30
2015,04,08,07,06,3.20
2015,04,08,07,07,3.20
2015,04,08,07,08,3.20
2015,04,08,07,09,3.20
2015,04,08,07,10,3.20
2015,04,08,07,11,3.10
2015,04,08,07,12,3.10
2015,04,08,07,13,3.10
2015,04,08,07,14,3.00
2015,04,08,07,15,3.00
2015,04,08,07,16,3.00
2015,04,08,07,17,2.90
2015,04,08,07,18,2.90
2015,04,08,07,19,2.90
2015,04,08,07,20,2.80
2015,04,08,07,21,2.80
2015,04,08,07,22,2.80
2015,04,08,07,23,2.90
2015,04,08,07,24,2.90
2015,04,08,07,25,2.90
2015,04,08,07,26,3.00
2015,04,08,07,27,3.00
2015,04,08,07,28,3.10
2015,04,08,07,29,3.20
2015,04,08,07,30,3.20
2015,04,08,07,31,3.30
2015,04,08,07,32,3.30
2015,04,08,07,33,3.40
2015,04,08,07,34,3.40
2015,04,08,07,35,3.50
2015,04,08,07,36,3.60
2015,04,08,07,37,3.60
2015,04,08,07,38,3.70
2015,04,08,07,39,3.80
2015,04,08,07,40,3.80
2015,04,08,07,41,4.00
2015,04,08,07,42,4.10
2015,04,08,07,43,4.20
2015,04,08,07,44,4.30
2015,04,08,07,45,4.40
2015,04,08,07,46,4.50
2015,04,08,07,47,4.60
2015,04,08,07,48,4.70
2015,04,08,07,49,4.80
2015,04,08,07,50,4.80
2015,04,08,07,51,4.80
2015,04,08,07,52,4.80
2015,04,08,07,53,4.70
2015,04,08,07,54,4.70
2015,04,08,07,55,4.70
2015,04,08,07,56,4.60
2015,04,08,07,57,4.60
2015,04,08,07,58,4.60
2015,04,08,07,59,4.60
2015,04,08,08,00,4.70
2015,04,08,08,01,4.80
2015,04,08,08,02,4.80
2015,04,08,08,03,4.90
2015,04,08,08,04,5.10
2015,04,08,08,05,5.20
2015,04,08,08,06,5.30
2015,04,08,08,07,5.40
2015,04,08,08,08,5.50
2015,04,08,08,09,5.60
2015,04,08,08,10,5.70
2015,04,08,08,11,5.80
2015,04,08,08,12,5.80
2015,04,08,08,13,5.90
2015,04,08,08,14,5.90
2015,04,08,08,15,6.00
2015,04,08,08,16,6.10
2015,04,08,08,17,6.10
2015,04,08,08,18,6.20
2015,04,08,08,19,6.30
2015,04,08,08,20,6.40
2015,04,08,08,21,6.40
2015,04,08,08,22,6.50
2015,04,08,08,23,6.60
2015,04,08,08,24,6.70
2015,04,08,08,25,6.80
2015,04,08,08,26,6.90
2015,04,08,08,27,7.00
2015,04,08,08,28,7.10
2015,04,08,08,29,7.20
2015,04,08,08,30,7.30
2015,04,08,08,31,7.50
2015,04,08,08,32,7.60
2015,04,08,08,33,7.70
2015,04,08,08,34,7.80
2015,04,08,08,35,7.90
2015,04,08,08,36,8.00
2015,04,08,08,37,8.10
2015,04,08,08,38,8.20
2015,04,08,08,39,8.30
2015,04,08,08,40,8.40
2015,04,08,08,41,8.50
2015,04,08,08,42,8.60
2015,04,08,08,43,8.60
2015,04,08,08,44,8.70
2015,04,08,08,45,8.80
2015,04,08,08,46,8.90
2015,04,08,08,47,9.00
2015,04,08,08,48,9.00
2015,04,08,08,49,9.10
2015,04,08,08,50,9.20
2015,04,08,08,51,9.20
2015,04,08,08,52,9.20
2015,04,08,08,53,9.30
2015,04,08,08,54,9.30
2015,04,08,08,55,9.40
2015,04,08,08,56,9.50
2015,04,08,08,57,9.60
2015,04,08,08,58,9.70
2015,04,08,08,59,9.70
2015,04,08,09,00,9.80
2015,04,08,09,01,9.80
2015,04,08,09,02,9.80
2015,04,08,09,03,9.80
2015,04,08,09,04,9.80
2015,04,08,09,05,9.80
2015,04,08,09,06,9.90
2015,04,08,09,07,9.90
2015,04,08,09,08,10.00
2015,04,08,09,09,10.00
2015,04,08,09,10,10.10
2015,04,08,09,11,10.10
2015,04,08,09,12,10.20
2015,04,08,09,13,10.30
2015,04,08,09,14,10.30
2015,04,08,09,15,10.30
2015,04,08,09,16,10.30
2015,04,08,09,17,10.30
2015,04,08,09,18,10.30
2015,04,08,09,19,10.30
2015,04,08,09,20,10.30
2015,04,08,09,21,10.40
2015,04,08,09,22,10.40
2015,04,08,09,23,10.50
2015,04,08,09,24,10.50
2015,04,08,09,25,10.60
2015,04,08,09,26,10.60
2015,04,08,09,27,10.70
2015,04,08,09,28,10.70
2015,04,08,09,29,10.80
2015,04,08,09,30,10.80
2015,04,08,09,31,10.90
2015,04,08,09,32,10.90
2015,04,08,09,33,11.00
2015,04,08,09,34,11.10
2015,04,08,09,35,11.10
2015,04,08,09,36,11.10
2015,04,08,09,37,11.10
2015,04,08,09,38,11.20
2015,04,08,09,39,11.20
2015,04,08,09,40,11.30
2015,04,08,09,41,11.40
2015,04,08,09,42,11.50
2015,04,08,09,43,11.60
2015,04,08,09,44,11.50
2015,04,08,09,45,11.50
2015,04,08,09,46,11.40
2015,04,08,09,47,11.20
2015,04,08,09,48,11.10
2015,04,08,09,49,11.00
2015,04,08,09,50,11.00
2015,04,08,09,51,11.10
2015,04,08,09,52,11.20
2015,04,08,09,53,11.30
2015,04,08,09,54,11.30
2015,04,08,09,55,11.30
2015,04,08,09,56,11.20
2015,04,08,09,57,11.10
2015,04,08,09,58,11.00
2015,04,08,09,59,11.00
2015,04,08,10,00,10.90
2015,04,08,10,01,10.90
2015,04,08,10,02,10.90
2015,04,08,10,03,10.90
2015,04,08,10,04,10.90
2015,04,08,10,05,11.00
2015,04,08,10,06,11.00
2015,04,08,10,07,11.00
2015,04,08,10,08,11.00
2015,04,08,10,09,11.00
2015,04,08,10,10,11.00
2015,04,08,10,11,11.00
2015,04,08,10,12,11.10
2015,04,08,10,13,11.10
2015,04,08,10,14,11.10
2015,04,08,10,15,11.10
2015,04,08,10,16,11.10
2015,04,08,10,17,11.10
2015,04,08,10,18,11.20
2015,04,08,10,19,11.20
2015,04,08,10,20,11.20
2015,04,08,10,21,11.20
2015,04,08,10,22,11.20
2015,04,08,10,23,11.20
2015,04,08,10,24,11.30
2015,04,08,10,25,11.30
2015,04,08,10,26,11.40
2015,04,08,10,27,11.50
2015,04,08,10,28,11.60
2015,04,08,10,29,11.70
2015,04,08,10,30,11.80
2015,04,08,10,31,11.90
2015,04,08,10,32,12.00
2015,04,08,10,33,12.10
2015,04,08,10,34,12.20
2015,04,08,10,35,12.30
2015,04,08,10,36,12.40
2015,04,08,10,37,12.50
2015,04,08,10,38,12.50
2015,04,08,10,39,12.50
2015,04,08,10,40,12.60
2015,04,08,10,41,12.50
2015,04,08,10,42,12.50
2015,04,08,10,43,12.40
2015,04,08,10,44,12.30
2015,04,08,10,45,12.20
2015,04,08,10,46,12.10
2015,04,08,10,47,12.00
2015,04,08,10,48,12.00
2015,04,08,10,49,11.90
2015,04,08,10,50,11.90
2015,04,08,10,51,11.90
2015,04,08,10,52,11.80
2015,04,08,10,53,11.80
2015,04,08,10,54,11.80
2015,04,08,10,55,11.70
2015,04,08,10,56,11.60
2015,04,08,10,57,11.60
2015,04,08,10,58,11.50
2015,04,08,10,59,11.50
2015,04,08,11,00,11.50
2015,04,08,11,01,11.60
2015,04,08,11,02,11.60
2015,04,08,11,03,11.70
2015,04,08,11,04,11.70
2015,04,08,11,05,11.80
2015,04,08,11,06,11.80
2015,04,08,11,07,11.80
2015,04,08,11,08,11.80
2015,04,08,11,09,11.70
2015,04,08,11,10,11.70
2015,04,08,11,11,11.70
2015,04,08,11,12,11.60
2015,04,08,11,13,11.60
2015,04,08,11,14,11.50
2015,04,08,11,15,11.50
2015,04,08,11,16,11.40
2015,04,08,11,17,11.40
2015,04,08,11,18,11.40
2015,04,08,11,19,11.50
2015,04,08,11,20,11.60
2015,04,08,11,21,11.60
2015,04,08,11,22,11.60
2015,04,08,11,23,11.60
2015,04,08,11,24,11.70
2015,04,08,11,25,11.80
2015,04,08,11,26,11.90
2015,04,08,11,27,11.90
2015,04,08,11,28,12.00
2015,04,08,11,29,11.90
2015,04,08,11,30,11.90
2015,04,08,11,31,11.90
2015,04,08,11,32,11.90
2015,04,08,11,33,11.90
2015,04,08,11,34,11.90
2015,04,08,11,35,12.00
2015,04,08,11,36,12.00
2015,04,08,11,37,12.10
2015,04,08,11,38,12.10
2015,04,08,11,39,12.20
2015,04,08,11,40,12.20
2015,04,08,11,41,12.20
2015,04,08,11,42,12.30
2015,04,08,11,43,12.30
2015,04,08,11,44,12.30
2015,04,08,11,45,12.30
2015,04,08,11,46,12.40
2015,04,08,11,47,12.40
2015,04,08,11,48,12.50
2015,04,08,11,49,12.60
2015,04,08,11,50,12.60
2015,04,08,11,51,12.60
2015,04,08,11,52,12.60
2015,04,08,11,53,12.60
2015,04,08,11,54,12.60
2015,04,08,11,55,12.70
2015,04,08,11,56,12.70
2015,04,08,11,57,12.70
2015,04,08,11,58,12.70
2015,04,08,11,59,12.70
2015,04,08,12,00,12.80
2015,04,08,12,01,12.80
2015,04,08,12,02,12.80
2015,04,08,12,03,12.80
2015,04,08,12,04,12.80
2015,04,08,12,05,12.80
2015,04,08,12,06,12.80
2015,04,08,12,07,12.90
2015,04,08,12,08,13.00
2015,04,08,12,09,13.10
2015,04,08,12,10,13.20
2015,04,08,12,11,13.20
2015,04,08,12,12,13.30
2015,04,08,12,13,13.30
2015,04,08,12,14,13.40
2015,04,08,12,15,13.50
2015,04,08,12,16,13.60
2015,04,08,12,17,13.60
2015,04,08,12,18,13.60
2015,04,08,12,19,13.70
2015,04,08,12,20,13.70
2015,04,08,12,21,13.70
2015,04,08,12,22,13.80
2015,04,08,12,23,13.80
2015,04,08,12,24,13.80
2015,04,08,12,25,13.80
2015,04,08,12,26,13.80
2015,04,08,12,27,13.60
2015,04,08,12,28,13.50
2015,04,08,12,29,13.50
2015,04,08,12,30,13.40
2015,04,08,12,31,13.40
2015,04,08,12,32,13.30
2015,04,08,12,33,13.30
2015,04,08,12,34,13.30
2015,04,08,12,35,13.40
2015,04,08,12,36,13.50
2015,04,08,12,37,13.60
2015,04,08,12,38,13.60
2015,04,08,12,39,13.50
2015,04,08,12,40,13.50
2015,04,08,12,41,13.40
2015,04,08,12,42,13.30
2015,04,08,12,43,13.20
2015,04,08,12,44,13.20
2015,04,08,12,45,13.10
2015,04,08,12,46,13.10
2015,04,08,12,47,13.00
2015,04,08,12,48,13.00
2015,04,08,12,49,13.10
2015,04,08,12,50,13.10
2015,04,08,12,51,13.10
2015,04,08,12,52,13.20
2015,04,08,12,53,13.30
2015,04,08,12,54,13.30
2015,04,08,12,55,13.30
2015,04,08,12,56,13.20
2015,04,08,12,57,13.20
2015,04,08,12,58,13.30
2015,04,08,12,59,13.30
2015,04,08,13,00,13.40
2015,04,08,13,01,13.40
2015,04,08,13,02,13.40
2015,04,08,13,03,13.50
2015,04,08,13,04,13.50
2015,04,08,13,05,13.60
2015,04,08,13,06,13.60
2015,04,08,13,07,13.70
2015,04,08,13,08,13.70
2015,04,08,13,09,13.70
2015,04,08,13,10,13.70
2015,04,08,13,11,13.70
2015,04,08,13,12,13.70
2015,04,08,13,13,13.70
2015,04,08,13,14,13.70
2015,04,08,13,15,13.70
2015,04,08,13,16,13.70
2015,04,08,13,17,13.70
2015,04,08,13,18,13.70
2015,04,08,13,19,13.70
2015,04,08,13,20,13.70
2015,04,08,13,21,13.70
2015,04,08,13,22,13.80
2015,04,08,13,23,13.90
2015,04,08,13,24,14.00
2015,04,08,13,25,14.00
2015,04,08,13,26,14.10
2015,04,08,13,27,14.00
2015,04,08,13,28,14.00
2015,04,08,13,29,13.90
2015,04,08,13,30,13.90
2015,04,08,13,31,13.90
2015,04,08,13,32,13.90
2015,04,08,13,33,14.00
2015,04,08,13,34,14.00
2015,04,08,13,35,14.10
2015,04,08,13,36,14.10
2015,04,08,13,37,14.00
2015,04,08,13,38,14.00
2015,04,08,13,39,14.10
2015,04,08,13,40,14.10
2015,04,08,13,41,14.10
2015,04,08,13,42,14.20
2015,04,08,13,43,14.20
2015,04,08,13,44,14.20
2015,04,08,13,45,14.20
2015,04,08,13,46,14.10
2015,04,08,13,47,14.10
2015,04,08,13,48,14.10
2015,04,08,13,49,14.10
2015,04,08,13,50,14.10
2015,04,08,13,51,14.10
2015,04,08,13,52,14.20
2015,04,08,13,53,14.20
2015,04,08,13,54,14.20
2015,04,08,13,55,14.20
2015,04,08,13,56,14.30
2015,04,08,13,57,14.30
2015,04,08,13,58,14.30
2015,04,08,13,59,14.30
2015,04,08,14,00,14.30
2015,04,08,14,01,14.30
2015,04,08,14,02,14.30
2015,04,08,14,03,14.30
2015,04,08,14,04,14.30
2015,04,08,14,05,14.40
2015,04,08,14,06,14.40
2015,04,08,14,07,14.50
2015,04,08,14,08,14.50
2015,04,08,14,09,14.60
2015,04,08,14,10,14.60
2015,04,08,14,11,14.70
2015,04,08,14,12,14.80
2015,04,08,14,13,14.80
2015,04,08,14,14,14.80
2015,04,08,14,15,14.80
2015,04,08,14,16,14.80
2015,04,08,14,17,14.80
2015,04,08,14,18,14.80
2015,04,08,14,19,14.90
2015,04,08,14,20,14.90
2015,04,08,14,21,15.00
2015,04,08,14,22,15.10
2015,04,08,14,23,15.10
2015,04,08,14,24,15.10
2015,04,08,14,25,15.00
2015,04,08,14,26,15.00
2015,04,08,14,27,14.90
2015,04,08,14,28,14.80
2015,04,08,14,29,14.90
2015,04,08,14,30,14.90
2015,04,08,14,31,15.00
2015,04,08,14,32,15.00
2015,04,08,14,33,15.10
2015,04,08,14,34,15.10
2015,04,08,14,35,15.10
2015,04,08,14,36,15.10
2015,04,08,14,37,15.10
2015,04,08,14,38,15.00
2015,04,08,14,39,15.00
2015,04,08,14,40,15.00
2015,04,08,14,41,15.00
2015,04,08,14,42,14.90
2015,04,08,14,43,14.90
2015,04,08,14,44,14.90
2015,04,08,14,45,14.80
2015,04,08,14,46,14.80
2015,04,08,14,47,14.80
2015,04,08,14,48,14.80
2015,04,08,14,49,14.90
2015,04,08,14,50,14.90
2015,04,08,14,51,14.90
2015,04,08,14,52,15.00
2015,04,08,14,53,15.00
2015,04,08,14,54,15.00
2015,04,08,14,55,14.90
2015,04,08,14,56,14.90
2015,04,08,14,57,15.00
2015,04,08,14,58,15.00
2015,04,08,14,59,15.10
2015,04,08,15,00,15.20
2015,04,08,15,01,15.20
2015,04,08,15,02,15.20
2015,04,08,15,03,15.20
2015,04,08,15,04,15.10
2015,04,08,15,05,15.00
2015,04,08,15,06,15.00
2015,04,08,15,07,15.00
2015,04,08,15,08,15.00
2015,04,08,15,09,15.00
2015,04,08,15,10,15.10
2015,04,08,15,11,15.10
2015,04,08,15,12,15.00
2015,04,08,15,13,15.00
2015,04,08,15,14,15.00
2015,04,08,15,15,14.90
2015,04,08,15,16,14.90
2015,04,08,15,17,15.00
2015,04,08,15,18,15.00
2015,04,08,15,19,15.10
2015,04,08,15,20,15.10
2015,04,08,15,21,15.10
2015,04,08,15,22,15.00
2015,04,08,15,23,15.00
2015,04,08,15,24,15.00
2015,04,08,15,25,14.90
2015,04,08,15,26,14.90
2015,04,08,15,27,14.90
2015,04,08,15,28,14.90
2015,04,08,15,29,14.90
2015,04,08,15,30,14.90
2015,04,08,15,31,14.90
2015,04,08,15,32,15.00
2015,04,08,15,33,15.00
2015,04,08,15,34,15.10
2015,04,08,15,35,15.10
2015,04,08,15,36,15.20
2015,04,08,15,37,15.20
2015,04,08,15,38,15.20
2015,04,08,15,39,15.30
2015,04,08,15,40,15.20
2015,04,08,15,41,15.20
2015,04,08,15,42,15.20
2015,04,08,15,43,15.10
2015,04,08,15,44,15.10
2015,04,08,15,45,15.10
2015,04,08,15,46,15.10
2015,04,08,15,47,15.00
2015,04,08,15,48,15.00
2015,04,08,15,49,15.00
2015,04,08,15,50,15.10
2015,04,08,15,51,15.10
2015,04,08,15,52,15.10
2015,04,08,15,53,15.10
2015,04,08,15,54,15.10
2015,04,08,15,55,15.10
2015,04,08,15,56,15.20
2015,04,08,15,57,15.30
2015,04,08,15,58,15.40
2015,04,08,15,59,15.50
2015,04,08,16,00,15.60
2015,04,08,16,01,15.60
2015,04,08,16,02,15.60
2015,04,08,16,03,15.60
2015,04,08,16,04,15.60
2015,04,08,16,05,15.50
2015,04,08,16,06,15.40
2015,04,08,16,07,15.40
2015,04,08,16,08,15.40
2015,04,08,16,09,15.30
2015,04,08,16,10,15.30
2015,04,08,16,11,15.30
2015,04,08,16,12,15.30
2015,04,08,16,13,15.30
2015,04,08,16,14,15.30
2015,04,08,16,15,15.30
2015,04,08,16,16,15.30
2015,04,08,16,17,15.30
2015,04,08,16,18,15.30
2015,04,08,16,19,15.30
2015,04,08,16,20,15.30
2015,04,08,16,21,15.30
2015,04,08,16,22,15.30
2015,04,08,16,23,15.30
2015,04,08,16,24,15.30
2015,04,08,16,25,15.40
2015,04,08,16,26,15.40
2015,04,08,16,27,15.40
2015,04,08,16,28,15.40
2015,04,08,16,29,15.40
2015,04,08,16,30,15.50
2015,04,08,16,31,15.50
2015,04,08,16,32,15.50
2015,04,08,16,33,15.50
2015,04,08,16,34,15.50
2015,04,08,16,35,15.60
2015,04,08,16,36,15.60
2015,04,08,16,37,15.70
2015,04,08,16,38,15.70
2015,04,08,16,39,15.70
2015,04,08,16,40,15.70
2015,04,08,16,41,15.70
2015,04,08,16,42,15.70
2015,04,08,16,43,15.70
2015,04,08,16,44,15.70
2015,04,08,16,45,15.60
2015,04,08,16,46,15.60
2015,04,08,16,47,15.50
2015,04,08,16,48,15.50
2015,04,08,16,49,15.50
2015,04,08,16,50,15.50
2015,04,08,16,51,15.50
2015,04,08,16,52,15.60
2015,04,08,16,53,15.60
2015,04,08,16,54,15.70
2015,04,08,16,55,15.70
2015,04,08,16,56,15.70
2015,04,08,16,57,15.70
2015,04,08,16,58,15.70
2015,04,08,16,59,15.80
2015,04,08,17,00,15.80
2015,04,08,17,01,15.80
2015,04,08,17,02,15.80
2015,04,08,17,03,15.80
2015,04,08,17,04,15.80
2015,04,08,17,05,15.80
2015,04,08,17,06,15.80
2015,04,08,17,07,15.80
2015,04,08,17,08,15.80
2015,04,08,17,09,15.80
2015,04,08,17,10,15.80
2015,04,08,17,11,15.80
2015,04,08,17,12,15.80
2015,04,08,17,13,15.80
2015,04,08,17,14,15.90
2015,04,08,17,15,15.90
2015,04,08,17,16,15.90
2015,04,08,17,17,15.90
2015,04,08,17,18,15.90
2015,04,08,17,19,15.90
2015,04,08,17,20,15.80
2015,04,08,17,21,15.80
2015,04,08,17,22,15.80
2015,04,08,17,23,15.70
2015,04,08,17,24,15.70
2015,04,08,17,25,15.70
2015,04,08,17,26,15.80
2015,04,08,17,27,15.80
2015,04,08,17,28,15.90
2015,04,08,17,29,16.00
2015,04,08,17,30,16.00
2015,04,08,17,31,16.00
2015,04,08,17,32,16.00
2015,04,08,17,33,16.00
2015,04,08,17,34,16.00
2015,04,08,17,35,16.00
2015,04,08,17,36,15.90
2015,04,08,17,37,15.90
2015,04,08,17,38,15.90
2015,04,08,17,39,15.80
2015,04,08,17,40,15.80
2015,04,08,17,41,15.80
2015,04,08,17,42,15.80
2015,04,08,17,43,15.90